Flag for Germany Weather past 2 weeks in Karlsruhe, Baden-Württemberg, Germany

Now
43 °F

Passing clouds.


Feels Like: 36 °F
Forecast: 39 / 45 °F
Wind: 13 mph from Southwest

Location: Karlsruhe - Baden Wurttemberg

Current Time: Dec 20, 2014 at 10:06:41 PM

Latest Report: Dec 20, 2014 at 9:20 PM


Visibility: N/A

Pressure: 30.39 "Hg

Humidity: 76%

Dew point: 36 °F

Location of KarlsruheLocation

Historic Weather in Karlsruhe — Graph

°F

Karlsruhe temperature yesterday

Maximum temperature yesterday: 52 °F (at 9:20 AM)
Minimum temperature yesterday: 46 °F (at 11:50 PM)
Average temperature yesterday: 50 °F

Past Weeks' High & Low Weather Summary

 TemperatureHumidityPressure
High54 °F (Dec 18, 5:50 PM)100% (Dec 9, 5:20 AM)30.45 "Hg (Dec 9, 5:20 AM)
Low28 °F (Dec 8, 8:50 PM)50% (Dec 15, 2:50 PM)29.71 "Hg (Dec 12, 4:20 PM)
Average43 °F83%30.07 "Hg
* Reported Dec 5 8:20 PM — Dec 20 8:50 PM, Karlsruhe, Weather by CustomWeather, © 2014

Note: Actual official high and low records may vary slightly from our data, if they occured in-between our weather recording intervals... More about our weather records

Advertising

Karlsruhe weather history for previous 24 hours

 ConditionsComfort  
Time TempWeatherWind HumidityBarometerVisibility
8:50 PM
Dec 20
43 °FPassing clouds.12 mph76%30.39 "HgN/A
8:20 PM43 °FPassing clouds.12 mph76%30.36 "HgN/A
7:50 PM43 °FPassing clouds.14 mph76%30.36 "HgN/A
7:20 PM43 °FLight rain. Passing clouds.16 mph76%30.33 "HgN/A
6:50 PM45 °FPassing clouds.17 mph66%30.33 "HgN/A
6:20 PM45 °FRain. Passing clouds.16 mph66%30.30 "HgN/A
5:50 PM45 °FRain. Passing clouds.15 mph66%30.30 "HgN/A
5:20 PM45 °FLight rain. Passing clouds.15 mph66%30.27 "HgN/A
4:50 PM45 °FLight rain. Passing clouds.15 mph66%30.27 "HgN/A
4:20 PM45 °FScattered showers. Partly sunny.16 mph61%30.27 "HgN/A
3:50 PM45 °FLight rain. Partly sunny.17 mph61%30.27 "HgN/A
3:20 PM45 °FScattered showers. Partly sunny.18 mph61%30.27 "HgN/A
2:50 PM45 °FPartly sunny.20 mph61%30.24 "HgN/A
2:20 PM45 °FPartly sunny.20 mph61%30.27 "HgN/A
1:50 PM45 °FSunny.18 mph61%30.27 "Hg10 mi
1:20 PM45 °FSunny.16 mph61%30.27 "Hg10 mi
12:50 PM45 °FPartly sunny.15 mph61%30.30 "HgN/A
12:20 PM45 °FPartly sunny.16 mph61%30.30 "HgN/A
11:50 AM45 °FBroken clouds.12 mph66%30.30 "HgN/A
11:20 AM45 °FScattered clouds.14 mph66%30.33 "HgN/A
10:50 AM43 °FLight rain. Scattered clouds.13 mph71%30.33 "HgN/A
10:20 AM43 °FPartly sunny.15 mph71%30.33 "HgN/A
9:50 AM41 °FScattered clouds.15 mph76%30.33 "HgN/A
9:20 AM41 °FScattered clouds.13 mph76%30.33 "HgN/A
8:50 AM41 °FScattered clouds.13 mph70%30.33 "HgN/A
8:20 AM41 °FSunny.15 mph70%30.33 "Hg10 mi
7:50 AM41 °FPassing clouds.13 mph76%30.33 "HgN/A
7:20 AM41 °FPassing clouds.13 mph76%30.33 "HgN/A
6:50 AM41 °FPassing clouds.10 mph76%30.33 "HgN/A
6:20 AM37 °FPassing clouds.9 mph81%30.33 "HgN/A
5:50 AM41 °FClear.10 mph76%30.30 "Hg10 mi
5:20 AM41 °FPassing clouds.9 mph81%30.30 "HgN/A
4:50 AM41 °FPassing clouds.10 mph81%30.30 "HgN/A
12:50 AM46 °FPassing clouds.7 mph76%30.24 "HgN/A
12:20 AM46 °FPassing clouds.7 mph76%30.24 "HgN/A
11:50 PM
Dec 19
46 °FPartly cloudy.7 mph82%30.24 "HgN/A
11:20 PM48 °FPartly cloudy.5 mph76%30.21 "HgN/A
10:50 PM50 °FPassing clouds.8 mph76%30.18 "HgN/A
10:20 PM48 °FPassing clouds.9 mph87%30.18 "HgN/A
Weather by CustomWeather, © 2014

See weather overviewHow to use our weather pages